AIC4GP VIDP-VAPO

Flight info

Callsign AIC4GP
Flight time 1h 33m
Altitude 38000
Route DPN A474 IGOLU DCT NIKOT Q2 BEGON/N0448F370 DCT ANGUP/N0450F380 DCT KAKPO
Aircraft A319/M-SDE3FGHIRWY/LB1

Departure

Time 2026-05-06 12:18
Airport Indira Gandhi International Airport (VIDP)

Arrival

Time 2026-05-06 13:52
Airport Pune International Airport (VAPO)
Time Latitude Longitude Altitude Speed Heading
2026-05-06 12:03 28.54954 77.09235 752 ft 0 kts 60°
2026-05-06 12:06 28.54951 77.09230 752 ft 1 kts 59°
2026-05-06 12:06 28.54948 77.09225 752 ft 0 kts 58°
2026-05-06 12:07 28.54947 77.09223 752 ft 1 kts 58°
2026-05-06 12:07 28.54943 77.09215 752 ft 1 kts 58°
2026-05-06 12:07 28.54939 77.09208 747 ft 1 kts 58°
2026-05-06 12:07 28.54934 77.09200 747 ft 1 kts 58°
2026-05-06 12:08 28.54930 77.09192 752 ft 1 kts 58°
2026-05-06 12:08 28.54926 77.09185 748 ft 1 kts 58°
2026-05-06 12:08 28.54922 77.09177 749 ft 1 kts 58°
2026-05-06 12:08 28.54920 77.09169 749 ft 1 kts 128°
2026-05-06 12:09 28.54929 77.09166 750 ft 2 kts 195°
2026-05-06 12:09 28.54942 77.09170 748 ft 1 kts 162°
2026-05-06 12:09 28.54947 77.09167 748 ft 0 kts 139°
2026-05-06 12:11 28.54940 77.09174 751 ft 5 kts 141°
2026-05-06 12:11 28.54892 77.09208 749 ft 11 kts 149°
2026-05-06 12:11 28.54814 77.09261 751 ft 13 kts 149°
2026-05-06 12:11 28.54806 77.09267 749 ft 5 kts 149°
2026-05-06 12:12 28.54779 77.09298 751 ft 11 kts 119°
2026-05-06 12:12 28.54745 77.09428 750 ft 13 kts 104°
2026-05-06 12:12 28.54721 77.09536 748 ft 14 kts 104°
2026-05-06 12:12 28.54699 77.09634 751 ft 12 kts 104°
2026-05-06 12:13 28.54685 77.09695 751 ft 12 kts 104°
2026-05-06 12:13 28.54665 77.09783 747 ft 11 kts 104°
2026-05-06 12:13 28.54641 77.09883 749 ft 11 kts 105°
2026-05-06 12:13 28.54617 77.09983 749 ft 16 kts 105°
2026-05-06 12:14 28.54596 77.10072 751 ft 20 kts 104°
2026-05-06 12:14 28.54559 77.10235 750 ft 15 kts 104°
2026-05-06 12:14 28.54527 77.10372 751 ft 20 kts 104°
2026-05-06 12:14 28.54516 77.10420 751 ft 6 kts 104°
2026-05-06 12:15 28.54505 77.10468 748 ft 8 kts 105°
2026-05-06 12:15 28.54482 77.10552 751 ft 12 kts 118°
2026-05-06 12:15 28.54413 77.10586 748 ft 13 kts 197°
2026-05-06 12:15 28.54331 77.10563 750 ft 8 kts 192°
2026-05-06 12:16 28.54327 77.10562 750 ft 0 kts 187°
2026-05-06 12:16 28.54310 77.10559 749 ft 5 kts 189°
2026-05-06 12:16 28.54263 77.10550 747 ft 8 kts 192°
2026-05-06 12:16 28.54194 77.10532 748 ft 12 kts 192°
2026-05-06 12:17 28.54130 77.10514 751 ft 1 kts 202°
2026-05-06 12:17 28.54127 77.10501 751 ft 3 kts 281°
2026-05-06 12:17 28.54160 77.10501 749 ft 7 kts 17°
2026-05-06 12:17 28.54212 77.10490 749 ft 8 kts 301°
2026-05-06 12:18 28.54238 77.10369 750 ft 45 kts 284°
2026-05-06 12:18 28.54392 77.09668 745 ft 133 kts 283°
2026-05-06 12:18 28.54649 77.08442 1055 ft 172 kts 283°
2026-05-06 12:18 28.54929 77.07121 1965 ft 167 kts 285°
2026-05-06 12:19 28.55202 77.05867 2836 ft 169 kts 286°
2026-05-06 12:19 28.55509 77.04512 3301 ft 184 kts 286°
2026-05-06 12:19 28.55781 77.03019 3542 ft 204 kts 273°
2026-05-06 12:19 28.55452 77.01348 3702 ft 232 kts 242°
2026-05-06 12:20 28.54283 76.99967 3944 ft 257 kts 213°
2026-05-06 12:20 28.52662 76.98942 4188 ft 274 kts 210°
2026-05-06 12:20 28.50945 76.97929 5037 ft 277 kts 210°
2026-05-06 12:20 28.49242 76.96897 6127 ft 278 kts 211°
2026-05-06 12:21 28.47557 76.95834 7096 ft 281 kts 213°
2026-05-06 12:21 28.45854 76.94732 8104 ft 283 kts 213°
2026-05-06 12:21 28.44138 76.93611 9113 ft 286 kts 214°
2026-05-06 12:21 28.42408 76.92480 10087 ft 290 kts 214°
2026-05-06 12:22 28.40602 76.91292 10550 ft 312 kts 215°
2026-05-06 12:22 28.38643 76.90005 10897 ft 336 kts 214°
2026-05-06 12:22 28.36582 76.88663 11594 ft 345 kts 214°
2026-05-06 12:22 28.34487 76.87313 12493 ft 349 kts 214°
2026-05-06 12:23 28.32351 76.85940 13352 ft 354 kts 215°
2026-05-06 12:23 28.30185 76.84548 14145 ft 359 kts 215°
2026-05-06 12:23 28.27997 76.83140 14889 ft 364 kts 216°
2026-05-06 12:23 28.25782 76.81712 15627 ft 370 kts 216°
2026-05-06 12:24 28.23555 76.80273 16345 ft 375 kts 216°
2026-05-06 12:24 28.21272 76.78795 17057 ft 381 kts 216°
2026-05-06 12:24 28.18958 76.77295 17750 ft 386 kts 216°
2026-05-06 12:24 28.16606 76.75771 18411 ft 391 kts 217°
2026-05-06 12:25 28.14227 76.74234 19051 ft 395 kts 217°
2026-05-06 12:25 28.11824 76.72683 19698 ft 399 kts 217°
2026-05-06 12:25 28.09388 76.71111 20344 ft 403 kts 217°
2026-05-06 12:25 28.06945 76.69535 20981 ft 407 kts 217°
2026-05-06 12:26 28.04473 76.67942 21609 ft 411 kts 217°
2026-05-06 12:26 28.02003 76.66353 22224 ft 415 kts 217°
2026-05-06 12:26 27.99478 76.64730 22838 ft 419 kts 217°
2026-05-06 12:26 27.96922 76.63087 23425 ft 423 kts 217°
2026-05-06 12:27 27.94346 76.61435 23937 ft 427 kts 217°
2026-05-06 12:27 27.91753 76.59773 24466 ft 429 kts 218°
2026-05-06 12:27 27.89140 76.58099 24969 ft 432 kts 218°
2026-05-06 12:27 27.86518 76.56420 25456 ft 436 kts 218°
2026-05-06 12:28 27.83896 76.54743 25931 ft 439 kts 218°
2026-05-06 12:28 27.81227 76.53036 26407 ft 442 kts 218°
2026-05-06 12:28 27.78598 76.51212 26860 ft 442 kts 222°
2026-05-06 12:28 27.76043 76.49256 27304 ft 445 kts 223°
2026-05-06 12:29 27.73510 76.47303 27758 ft 447 kts 222°
2026-05-06 12:29 27.70925 76.45325 28186 ft 450 kts 222°
2026-05-06 12:29 27.68311 76.43342 28604 ft 453 kts 221°
2026-05-06 12:29 27.65677 76.41359 28999 ft 456 kts 221°
2026-05-06 12:30 27.63017 76.39366 29392 ft 459 kts 221°
2026-05-06 12:30 27.60344 76.37366 29771 ft 462 kts 221°
2026-05-06 12:30 27.57657 76.35357 30121 ft 465 kts 221°
2026-05-06 12:30 27.54981 76.33365 30484 ft 467 kts 220°
2026-05-06 12:31 27.52197 76.31434 30842 ft 471 kts 217°
2026-05-06 12:31 27.49312 76.29656 31279 ft 474 kts 214°
2026-05-06 12:31 27.46330 76.28019 31770 ft 474 kts 212°
2026-05-06 12:31 27.43361 76.26431 32238 ft 473 kts 212°
2026-05-06 12:32 27.40378 76.24845 32686 ft 472 kts 212°
2026-05-06 12:32 27.37456 76.23293 33118 ft 470 kts 212°
2026-05-06 12:32 27.34503 76.21723 33535 ft 469 kts 213°
2026-05-06 12:32 27.31562 76.20156 33906 ft 467 kts 213°
2026-05-06 12:33 27.28621 76.18584 34238 ft 466 kts 213°
2026-05-06 12:33 27.25736 76.17039 34574 ft 464 kts 213°
2026-05-06 12:33 27.22830 76.15479 34895 ft 462 kts 213°
2026-05-06 12:33 27.19933 76.13924 35206 ft 461 kts 213°
2026-05-06 12:34 27.17045 76.12373 35524 ft 459 kts 213°
2026-05-06 12:34 27.14169 76.10829 35790 ft 458 kts 213°
2026-05-06 12:34 27.11286 76.09282 36101 ft 457 kts 213°
2026-05-06 12:34 27.08424 76.07748 36403 ft 456 kts 213°
2026-05-06 12:35 27.05561 76.06213 36699 ft 455 kts 213°
2026-05-06 12:35 27.02712 76.04687 37016 ft 454 kts 213°
2026-05-06 12:35 26.99853 76.03157 37327 ft 453 kts 213°
2026-05-06 12:35 26.97009 76.01636 37629 ft 451 kts 213°
2026-05-06 12:36 26.94216 76.00143 37811 ft 451 kts 213°
2026-05-06 12:36 26.91386 75.98631 37800 ft 449 kts 213°
2026-05-06 12:36 26.85752 75.95622 37798 ft 449 kts 213°
2026-05-06 12:37 26.80112 75.92612 37800 ft 449 kts 213°
2026-05-06 12:37 26.74461 75.89601 37799 ft 449 kts 213°
2026-05-06 12:38 26.68850 75.86613 37800 ft 449 kts 213°
2026-05-06 12:38 26.63205 75.83612 37801 ft 449 kts 213°
2026-05-06 12:39 26.57554 75.80610 37802 ft 449 kts 213°
2026-05-06 12:39 26.51903 75.77612 37802 ft 450 kts 213°
2026-05-06 12:40 26.46274 75.74628 37800 ft 450 kts 213°
2026-05-06 12:40 26.40614 75.71632 37799 ft 450 kts 213°
2026-05-06 12:41 26.34949 75.68635 37800 ft 450 kts 213°
2026-05-06 12:41 26.29326 75.65665 37798 ft 450 kts 213°
2026-05-06 12:42 26.23673 75.62683 37794 ft 449 kts 213°
2026-05-06 12:42 26.18023 75.59704 37793 ft 449 kts 213°
2026-05-06 12:43 26.12362 75.56724 37794 ft 449 kts 213°
2026-05-06 12:43 26.06731 75.53762 37792 ft 449 kts 213°
2026-05-06 12:44 26.01080 75.50793 37789 ft 449 kts 213°
2026-05-06 12:44 25.95469 75.47848 37787 ft 448 kts 213°
2026-05-06 12:45 25.89820 75.44896 37790 ft 449 kts 212°
2026-05-06 12:46 25.81077 75.41013 37794 ft 453 kts 207°
2026-05-06 12:46 25.75142 75.38577 37796 ft 453 kts 207°
2026-05-06 12:47 25.69216 75.36149 37797 ft 453 kts 207°
2026-05-06 12:47 25.63330 75.33736 37796 ft 453 kts 207°
2026-05-06 12:48 25.57407 75.31308 37797 ft 453 kts 207°
2026-05-06 12:48 25.51502 75.28889 37792 ft 453 kts 207°
2026-05-06 12:49 25.45574 75.26462 37798 ft 453 kts 207°
2026-05-06 12:49 25.39687 75.24055 37799 ft 453 kts 207°
2026-05-06 12:50 25.33763 75.21636 37797 ft 452 kts 207°
2026-05-06 12:50 25.27883 75.19236 37801 ft 452 kts 207°
2026-05-06 12:51 25.21981 75.16829 37800 ft 452 kts 207°
2026-05-06 12:51 25.16055 75.14415 37802 ft 453 kts 207°
2026-05-06 12:52 25.10139 75.12009 37803 ft 453 kts 207°
2026-05-06 12:52 25.04235 75.09615 37806 ft 453 kts 207°
2026-05-06 12:53 24.98298 75.07212 37797 ft 453 kts 206°
2026-05-06 12:53 24.92410 75.04830 37803 ft 453 kts 206°
2026-05-06 12:54 24.86478 75.02430 37806 ft 453 kts 206°
2026-05-06 12:54 24.80546 75.00031 37806 ft 454 kts 206°
2026-05-06 12:55 24.74643 74.97646 37813 ft 454 kts 206°
2026-05-06 12:55 24.68710 74.95251 37812 ft 454 kts 206°
2026-05-06 12:56 24.62776 74.92858 37813 ft 454 kts 206°
2026-05-06 12:56 24.56840 74.90465 37812 ft 454 kts 206°
2026-05-06 12:57 24.50904 74.88075 37816 ft 454 kts 206°
2026-05-06 12:57 24.45006 74.85704 37817 ft 454 kts 206°
2026-05-06 12:58 24.39069 74.83318 37815 ft 453 kts 205°
2026-05-06 12:58 24.33137 74.80937 37820 ft 453 kts 205°
2026-05-06 12:59 24.27240 74.78573 37823 ft 453 kts 205°
2026-05-06 12:59 24.21307 74.76196 37817 ft 453 kts 205°
2026-05-06 13:00 24.15372 74.73821 37821 ft 453 kts 205°
2026-05-06 13:00 24.10478 74.71864 37823 ft 453 kts 205°
2026-05-06 13:01 24.03541 74.69094 37824 ft 453 kts 205°
2026-05-06 13:01 23.97641 74.66735 37828 ft 453 kts 205°
2026-05-06 13:02 23.92719 74.64761 37825 ft 453 kts 205°
2026-05-06 13:02 23.85822 74.61997 37824 ft 453 kts 205°
2026-05-06 13:03 23.80893 74.60025 37822 ft 453 kts 205°
2026-05-06 13:03 23.74947 74.57648 37821 ft 453 kts 205°
2026-05-06 13:04 23.69049 74.55293 37814 ft 453 kts 205°
2026-05-06 13:04 23.63122 74.52930 37813 ft 453 kts 205°
2026-05-06 13:05 23.57198 74.50569 37797 ft 453 kts 205°
2026-05-06 13:05 23.51279 74.48213 37802 ft 452 kts 205°
2026-05-06 13:06 23.45365 74.45861 37805 ft 452 kts 204°
2026-05-06 13:06 23.39466 74.43516 37804 ft 452 kts 204°
2026-05-06 13:07 23.33570 74.41175 37803 ft 452 kts 204°
2026-05-06 13:07 23.27639 74.38822 37800 ft 453 kts 204°
2026-05-06 13:08 23.21715 74.36475 37799 ft 452 kts 204°
2026-05-06 13:08 23.15804 74.34136 37797 ft 452 kts 204°
2026-05-06 13:09 23.09918 74.31808 37796 ft 452 kts 204°
2026-05-06 13:09 23.04007 74.29473 37792 ft 452 kts 204°
2026-05-06 13:10 22.98077 74.27133 37793 ft 451 kts 204°
2026-05-06 13:10 22.92206 74.24817 37785 ft 451 kts 204°
2026-05-06 13:11 22.86294 74.22488 37784 ft 451 kts 204°
2026-05-06 13:11 22.80382 74.20162 37779 ft 450 kts 204°
2026-05-06 13:12 22.74516 74.17856 37779 ft 450 kts 204°
2026-05-06 13:12 22.68649 74.15559 37777 ft 451 kts 202°
2026-05-06 13:13 22.62461 74.14077 37777 ft 461 kts 189°
2026-05-06 13:13 22.55972 74.14072 37773 ft 472 kts 177°
2026-05-06 13:14 22.49425 74.14834 37774 ft 471 kts 178°
2026-05-06 13:14 22.42927 74.15525 37776 ft 471 kts 179°
2026-05-06 13:15 22.36393 74.16160 37781 ft 471 kts 180°
2026-05-06 13:15 22.29862 74.16781 37788 ft 471 kts 180°
2026-05-06 13:16 22.23309 74.17408 37793 ft 472 kts 180°
2026-05-06 13:16 22.16798 74.18036 37799 ft 472 kts 180°
2026-05-06 13:17 22.10256 74.18670 37802 ft 472 kts 180°
2026-05-06 13:17 22.03701 74.19307 37809 ft 472 kts 180°
2026-05-06 13:18 21.97196 74.19941 37809 ft 471 kts 180°
2026-05-06 13:18 21.90646 74.20579 37814 ft 470 kts 180°
2026-05-06 13:19 21.84153 74.21213 37810 ft 469 kts 180°
2026-05-06 13:19 21.77661 74.21848 37804 ft 468 kts 180°
2026-05-06 13:20 21.71171 74.22482 37801 ft 467 kts 180°
2026-05-06 13:20 21.64741 74.23111 37785 ft 465 kts 180°
2026-05-06 13:21 21.58288 74.23742 37776 ft 464 kts 180°
2026-05-06 13:21 21.51857 74.24371 37769 ft 463 kts 180°
2026-05-06 13:22 21.45482 74.24994 37768 ft 462 kts 180°
2026-05-06 13:22 21.39072 74.25620 37765 ft 461 kts 180°
2026-05-06 13:23 21.32682 74.25870 37770 ft 456 kts 187°
2026-05-06 13:23 21.26415 74.25316 37770 ft 451 kts 195°
2026-05-06 13:24 21.20220 74.24275 37772 ft 451 kts 195°
2026-05-06 13:24 21.14020 74.23259 37775 ft 451 kts 194°
2026-05-06 13:25 21.07830 74.22275 37795 ft 452 kts 194°
2026-05-06 13:25 21.01595 74.21292 37802 ft 452 kts 194°
2026-05-06 13:26 20.95368 74.20310 37805 ft 453 kts 194°
2026-05-06 13:26 20.89104 74.19322 37814 ft 454 kts 194°
2026-05-06 13:27 20.82887 74.18342 37825 ft 454 kts 194°
2026-05-06 13:27 20.76622 74.17354 37833 ft 455 kts 193°
2026-05-06 13:28 20.70337 74.16364 37839 ft 455 kts 193°
2026-05-06 13:28 20.64065 74.15377 37841 ft 456 kts 193°
2026-05-06 13:29 20.57810 74.14394 37848 ft 456 kts 193°
2026-05-06 13:29 20.51530 74.13407 37845 ft 456 kts 193°
2026-05-06 13:30 20.45242 74.12420 37848 ft 456 kts 193°
2026-05-06 13:30 20.39006 74.11442 37849 ft 455 kts 193°
2026-05-06 13:31 20.32729 74.10458 37849 ft 455 kts 193°
2026-05-06 13:31 20.26444 74.09473 37851 ft 455 kts 193°
2026-05-06 13:32 20.20189 74.08494 37678 ft 451 kts 193°
2026-05-06 13:32 20.17097 74.08008 36686 ft 461 kts 192°
2026-05-06 13:32 20.13924 74.07508 35656 ft 465 kts 192°
2026-05-06 13:32 20.10644 74.06990 34422 ft 479 kts 192°
2026-05-06 13:33 20.07342 74.06472 33582 ft 480 kts 192°
2026-05-06 13:33 20.04061 74.05962 32788 ft 473 kts 192°
2026-05-06 13:33 20.00819 74.05461 32021 ft 469 kts 192°
2026-05-06 13:33 19.97581 74.04959 31283 ft 472 kts 192°
2026-05-06 13:34 19.95352 74.04612 30711 ft 480 kts 192°
2026-05-06 13:34 19.92011 74.04090 29958 ft 486 kts 192°
2026-05-06 13:34 19.88667 74.03571 29104 ft 485 kts 192°
2026-05-06 13:34 19.85332 74.03054 28281 ft 483 kts 192°
2026-05-06 13:35 19.82051 74.02547 27471 ft 481 kts 192°
2026-05-06 13:35 19.78729 74.02033 26672 ft 479 kts 192°
2026-05-06 13:35 19.75417 74.01683 25890 ft 480 kts 185°
2026-05-06 13:35 19.72077 74.01720 25162 ft 479 kts 180°
2026-05-06 13:36 19.68768 74.01938 24427 ft 477 kts 179°
2026-05-06 13:36 19.65473 74.02179 23720 ft 474 kts 179°
2026-05-06 13:36 19.62188 74.02414 22942 ft 471 kts 180°
2026-05-06 13:36 19.58926 74.02631 22124 ft 468 kts 180°
2026-05-06 13:37 19.55701 74.02832 21331 ft 457 kts 179°
2026-05-06 13:37 19.52617 74.03015 20593 ft 443 kts 179°
2026-05-06 13:37 19.49568 74.03190 19860 ft 431 kts 179°
2026-05-06 13:37 19.46601 74.03359 19179 ft 420 kts 179°
2026-05-06 13:38 19.43743 74.03523 18789 ft 403 kts 179°
2026-05-06 13:38 19.40956 74.03686 18067 ft 404 kts 178°
2026-05-06 13:38 19.38143 74.03848 17449 ft 401 kts 178°
2026-05-06 13:38 19.35388 74.04008 17019 ft 391 kts 178°
2026-05-06 13:39 19.32664 74.04168 16449 ft 387 kts 177°
2026-05-06 13:39 19.29977 74.04326 15665 ft 389 kts 177°
2026-05-06 13:39 19.27290 74.04484 15186 ft 383 kts 176°
2026-05-06 13:39 19.24661 74.04639 14695 ft 377 kts 176°
2026-05-06 13:40 19.22082 74.04792 14266 ft 370 kts 176°
2026-05-06 13:40 19.19489 74.04946 13451 ft 376 kts 175°
2026-05-06 13:40 19.16902 74.05100 13021 ft 368 kts 175°
2026-05-06 13:40 19.14366 74.05253 12434 ft 364 kts 175°
2026-05-06 13:41 19.11864 74.05406 12004 ft 357 kts 175°
2026-05-06 13:41 19.09395 74.05557 11435 ft 357 kts 175°
2026-05-06 13:41 19.06926 74.05708 10865 ft 356 kts 175°
2026-05-06 13:41 19.04479 74.05856 10446 ft 351 kts 175°
2026-05-06 13:42 19.02014 74.06006 9854 ft 352 kts 175°
2026-05-06 13:42 18.99635 74.06147 9523 ft 334 kts 175°
2026-05-06 13:42 18.97422 74.06277 9304 ft 314 kts 175°
2026-05-06 13:42 18.95313 74.06403 9110 ft 299 kts 174°
2026-05-06 13:43 18.93213 74.06532 9012 ft 303 kts 174°
2026-05-06 13:43 18.91104 74.06662 8810 ft 298 kts 174°
2026-05-06 13:43 18.89027 74.06790 8373 ft 302 kts 174°
2026-05-06 13:43 18.86955 74.06916 8154 ft 296 kts 175°
2026-05-06 13:44 18.84851 74.07049 7548 ft 305 kts 175°
2026-05-06 13:44 18.82761 74.07179 7198 ft 300 kts 175°
2026-05-06 13:44 18.80710 74.07308 6938 ft 294 kts 176°
2026-05-06 13:44 18.78632 74.07439 6538 ft 305 kts 176°
2026-05-06 13:45 18.76538 74.07568 6373 ft 296 kts 176°
2026-05-06 13:45 18.72388 74.07826 5543 ft 292 kts 177°
2026-05-06 13:45 18.70328 74.07953 4905 ft 300 kts 178°
2026-05-06 13:46 18.68284 74.08081 4597 ft 294 kts 178°
2026-05-06 13:46 18.66239 74.08208 4218 ft 291 kts 178°
2026-05-06 13:46 18.64225 74.08326 4011 ft 281 kts 178°
2026-05-06 13:46 18.62341 74.08435 3954 ft 259 kts 178°
2026-05-06 13:47 18.60640 74.08539 3955 ft 232 kts 179°
2026-05-06 13:47 18.59139 74.08497 3922 ft 198 kts 203°
2026-05-06 13:47 18.58083 74.07763 3531 ft 173 kts 238°
2026-05-06 13:47 18.57609 74.06729 3478 ft 137 kts 260°
2026-05-06 13:48 18.57498 74.06115 3712 ft 126 kts 268°
2026-05-06 13:48 18.57446 74.05178 3965 ft 130 kts 274°
2026-05-06 13:48 18.57474 74.04236 3868 ft 126 kts 276°
2026-05-06 13:48 18.57531 74.03318 3742 ft 125 kts 277°
2026-05-06 13:49 18.57583 74.02398 3434 ft 126 kts 278°
2026-05-06 13:49 18.57638 74.01511 3321 ft 123 kts 278°
2026-05-06 13:49 18.57716 74.00301 3174 ft 124 kts 276°
2026-05-06 13:49 18.57753 73.99699 3088 ft 121 kts 276°
2026-05-06 13:50 18.57804 73.98816 2956 ft 120 kts 277°
2026-05-06 13:50 18.57859 73.97937 2823 ft 122 kts 277°
2026-05-06 13:50 18.57913 73.97061 2631 ft 121 kts 277°
2026-05-06 13:50 18.57971 73.96166 2346 ft 123 kts 276°
2026-05-06 13:51 18.58031 73.95200 2279 ft 135 kts 277°
2026-05-06 13:51 18.58085 73.94237 2016 ft 127 kts 275°
2026-05-06 13:51 18.58137 73.93354 1928 ft 124 kts 276°
2026-05-06 13:51 18.58206 73.92514 1933 ft 103 kts 270°
2026-05-06 13:52 18.58140 73.91946 1929 ft 54 kts 258°
2026-05-06 13:52 18.58221 73.91677 1926 ft 45 kts 292°
2026-05-06 13:52 18.58257 73.91321 1925 ft 44 kts 276°
2026-05-06 13:52 18.58236 73.91113 1925 ft 20 kts 245°
2026-05-06 13:53 18.58208 73.91059 1924 ft 7 kts 239°
2026-05-06 13:53 18.58180 73.91007 1924 ft 9 kts 250°
2026-05-06 13:53 18.58157 73.90952 1924 ft 1 kts 244°
2026-05-06 13:53 18.58147 73.90930 1923 ft 5 kts 241°
2026-05-06 13:54 18.58113 73.90921 1923 ft 7 kts 181°
2026-05-06 13:54 18.58058 73.90896 1923 ft 9 kts 220°
2026-05-06 13:54 18.58011 73.90879 1923 ft 3 kts 191°
2026-05-06 13:54 18.57999 73.90877 1923 ft 0 kts 191°